Regional Weather Roundup
Issued by NWS

Home | Current Version | Previous Version | Graphics & Text | Print | Product List | Glossary Off
Versions: 1 2 3 4 5 6 7 8 9 10 11 12 13 14 15 16 17 18 19 20 21 22 23 24 25 26 27 28 29 30 31 32 33 34 35 36 37 38 39 40 41 42 43 44 45 46 47 48 49 50

053
ASUS43 KTOP 240608
RWRKS

WEATHER ROUNDUP FOR KANSAS
NATIONAL WEATHER SERVICE GOODLAND KS
1200 AM CST FRI NOV 24 2017

NOTE:  "FAIR" INDICATES FEW OR NO CLOUDS BELOW 12,000 FEET WITH NO
SIGNIFICANT WEATHER AND/OR OBSTRUCTIONS TO VISIBILITY.

KSZ001>006-013>018-027>032-041>047-240700-
NORTHWEST KANSAS

CITY           SKY/WX    TMP DP  RH WIND       PRES   REMARKS
GOODLAND       CLOUDY    53  35  50 SW15      29.84F
6HR MIN TEMP:  52; 6HR MAX TEMP:  63;

HAYS           CLEAR     50  39  66 SW6       29.82F
HILL CITY      CLEAR     55  40  56 SW10      29.80F
6HR MIN TEMP:  55; 6HR MAX TEMP:  62;

RUSSELL        CLEAR     52  40  63 SW13      29.80F
6HR MIN TEMP:  50; 6HR MAX TEMP:  57;

$$

KSZ061>065-074>080-084>089-240700-
SOUTHWEST KANSAS

CITY           SKY/WX    TMP DP  RH WIND       PRES   REMARKS
DODGE CITY     CLOUDY    54  38  54 SW12      29.88F
6HR MIN TEMP:  49; 6HR MAX TEMP:  62;

ELKHART        CLOUDY    57  37  46 SW16      29.92F
GARDEN CITY    CLOUDY    49  36  61 S9        29.86F
6HR MIN TEMP:  49; 6HR MAX TEMP:  62;

GREAT BEND     CLOUDY    53  38  56 S12       29.84F
LIBERAL        CLOUDY    45  36  70 SW10      29.91F
PRATT          CLOUDY    46  36  68 SW9       29.87F
6HR MIN TEMP:  44; 6HR MAX TEMP:  59;

$$

KSZ066>073-081>083-090>101-240700-
SOUTHEAST KANSAS

CITY           SKY/WX    TMP DP  RH WIND       PRES   REMARKS
CHANUTE        CLOUDY    50  33  52 S9        29.92F
6HR MIN TEMP:  47; 6HR MAX TEMP:  50;

COFFEYVILLE    MOCLDY    47  33  58 S6        29.94S
6HR MIN TEMP:  41; 6HR MAX TEMP:  55;

HUTCHINSON     CLEAR     48  38  68 S5        29.86F
6HR MIN TEMP:  47; 6HR MAX TEMP:  57;

MEDICINE LODGE   N/A     49  37  63 CALM      29.88F
NEWTON         CLEAR     50  36  58 S12       29.88F
PARSONS        CLOUDY    49  33  54 S5        29.94S
6HR MIN TEMP:  44; 6HR MAX TEMP:  54;

WICHITA INTL   MOCLDY    46  36  68 S8        29.88F
6HR MIN TEMP:  45; 6HR MAX TEMP:  55;

WICHITA JABRA  CLEAR     53  36  52 S10       29.88F
6HR MIN TEMP:  53; 6HR MAX TEMP:  56;

WICHITA MCCONL PTCLDY    48  34  58 SW10      29.88F
WINFIELD       PTCLDY    47  36  65 S8        29.91F
6HR MIN TEMP:  47; 6HR MAX TEMP:  57;

$$

KSZ007>012-019>026-033>040-048>060-102>105-240700-
NORTHEAST KANSAS

CITY           SKY/WX    TMP DP  RH WIND       PRES   REMARKS
CONCORDIA      PTCLDY    56  40  55 S17       29.77F
6HR MIN TEMP:  56; 6HR MAX TEMP:  62;

EMPORIA        CLOUDY    48  34  58 S12       29.87F
6HR MIN TEMP:  48; 6HR MAX TEMP:  56;

LAWRENCE       PTCLDY    48  37  65 E3        29.87F
6HR MIN TEMP:  45; 6HR MAX TEMP:  52;

MANHATTAN      CLOUDY    50  37  61 SW7       29.82F
6HR MIN TEMP:  44; 6HR MAX TEMP:  53;

MARYSVILLE     PTCLDY    55  39  54 S10       29.79F
OLATHE IND     PTCLDY    47  35  63 S8        29.88F
6HR MIN TEMP:  45; 6HR MAX TEMP:  53;

OLATHE EXE     PTCLDY    48  34  58 S9        29.88F
6HR MIN TEMP:  47; 6HR MAX TEMP:  53;

SALINA         CLOUDY    51  39  63 S8        29.82F
6HR MIN TEMP:  51; 6HR MAX TEMP:  58;

TOPEKA BILLARD CLOUDY    54  36  50 SW3       29.85F
6HR MIN TEMP:  47; 6HR MAX TEMP:  58;

TOPEKA FORBES  PTCLDY    54  36  50 S10       29.85F
6HR MIN TEMP:  50; 6HR MAX TEMP:  58;

$$




USA.gov is the U.S. government's official web portal to all federal, state and local government web resources and services.